Regional Weather Roundup
Issued by NWS Upton, NY

Current Version | Previous Version | Text Only | Print | Product List | Glossary On
Versions: 1 2 3 4 5 6 7 8 9 10 11 12 13 14 15 16 17 18 19 20 21 22 23 24 25 26 27 28 29 30 31 32 33 34 35 36 37 38 39 40 41 42 43 44 45 46 47 48 49 50
000
ASUS41 KOKX 022004
RWROKX

REGIONAL WEATHER ROUNDUP
NATIONAL WEATHER SERVICE NEW YORK NY
400 PM EDT WED SEP 02 2015

NOTE: "FAIR" INDICATES FEW OR NO CLOUDS BELOW 12,000 FEET WITH NO
SIGNIFICANT WEATHER AND/OR OBSTRUCTIONS TO VISIBILITY.

NYZ071-072-176-178-NJZ106-104-022100-
NEW YORK CITY METRO AREA


CITY           SKY/WX    TMP DP  RH WIND       PRES   REMARKS
CENTRAL PARK   SUNNY     89  65  44 VRB3      29.94F HX  91
LAGUARDIA APRT PTSUNNY   86  64  47 S15       29.91F
KENNEDY INTL   MOSUNNY   84  63  49 S16       29.94F
NEWARK/LIBERTY PTSUNNY   89  69  51 SE10      29.91F HX  93
BRNX BOT. GARD   N/A     84  64  51 SE3       29.94F
TETERBORO      SUNNY     89  64  43 S7        29.89F HX  90
$$

NYZ177-179-078>081-022100-
LONG ISLAND NEW YORK

CITY           SKY/WX    TMP DP  RH WIND       PRES   REMARKS
FARMINGDALE    MOSUNNY   84  62  47 S12       29.94F
ISLIP          PTSUNNY   82  62  50 S12       29.92F
SHIRLEY        MOSUNNY   83  61  47 S13       29.95F
WESTHAMPTON    MOSUNNY   83  60  45 SW10G18   29.96F
MONTAUK POINT    N/A     81  68  64 SW10G18   29.95F
$$

NYZ052-065-067-022100-
HUDSON VALLEY

CITY           SKY/WX    TMP DP  RH WIND       PRES   REMARKS
WHITE PLAINS   SUNNY     87  67  51 S10       29.93F HX  90
NEWBURGH       MOSUNNY   88  64  45 W9        29.94F
MONTGOMERY     SUNNY     92  63  38 NW6       29.92F HX  93
POUGHKEEPSIE   SUNNY     90  60  36 VRB3      29.90F
ALBANY         MOSUNNY   89  65  44 NW8       29.92F HX  91
$$

NJZ001-105-106-008-010-013-015-019>022-104-022100-
NEW JERSEY

CITY           SKY/WX    TMP DP  RH WIND       PRES   REMARKS
NEWARK/LIBERTY PTSUNNY   89  69  51 SE10      29.91F HX  93
TETERBORO      SUNNY     89  64  43 S7        29.89F HX  90
CALDWELL       MOSUNNY   92  58  31 VRB3      29.91F HX  91
MORRISTOWN     PTSUNNY   90  63  40 N5        29.92F HX  90
SOMERVILLE     PTSUNNY   92  61  35 NW8       29.89F HX  92
SUSSEX         SUNNY     88  64  44 CALM      29.94F
ANDOVER          N/A     87  65  47 CALM      29.94F
TRENTON        SUNNY     89  65  44 SW8       29.92F HX  91
MILLVILLE      PTSUNNY   86  69  56 VRB6      29.94F HX  90
ATLANTIC CITY  PTSUNNY   84  72  67 S10       29.95F
WRIGHTSTOWN    SUNNY     89  69  52 S2        29.90F HX  93
TOMS RIVER     PTSUNNY   88  70  55 S13       29.93F HX  92
BELMAR         MOSUNNY   84  66  54 S8        29.94F
$$

PAZ047>061-062-071-022100-
EASTERN PENNSYLVANIA

CITY           SKY/WX    TMP DP  RH WIND       PRES   REMARKS
PHILADELPHIA   PTSUNNY   92  62  36 S9        29.92F HX  92
ALLENTOWN      MOSUNNY   91  63  39 N5        29.93F HX  92
SCRANTON       MOSUNNY   87  64  46 W9        29.97F
$$

CTZ002-004>006-009-010-012-RIZ004-006-007-MAZ004-011-015-022100-
SOUTHERN NEW ENGLAND
 IN CT

CITY           SKY/WX    TMP DP  RH WIND       PRES   REMARKS
BRADLEY INTL   MOSUNNY   90  62  39 NW12      29.90F HX  90
HARTFORD       SUNNY     91  62  37 NW10      29.89F HX  91
DANBURY        PTSUNNY   87  59  38 NW5       29.94F
WTRBRY/OXFORD  MOSUNNY   88  63  42 VRB6      29.97F
BRIDGEPORT     SUNNY     86  67  52 S13       29.91F
MERIDEN        SUNNY     91  59  33 VRB6      29.90F HX  90
NEW HAVEN      MOSUNNY   85  67  54 S8        29.92F
CHESTER        NOT AVBL
GROTON         SUNNY     79  71  76 S6        29.92F
WILLIMANTIC    SUNNY     90  60  36 SW8       29.90F

 IN RI

CITY           SKY/WX    TMP DP  RH WIND       PRES   REMARKS
PROVIDENCE     MOSUNNY   88  65  46 SW14      29.91F HX  90
BLOCK ISLAND   SUNNY     79  68  69 SW16      29.94F
WESTERLY       SUNNY     81  64  56 S13       29.93F

 IN MA

CITY           SKY/WX    TMP DP  RH WIND       PRES   REMARKS
BOSTON         MOSUNNY   89  63  41 W6        29.88F HX  90
WORCESTER      SUNNY     84  61  45 W12       29.95F
WESTFIELD      SUNNY     89  62  40 NW9       29.91F
PROVINCETOWN     N/A     81  63  54 SW10      29.92S
NANTUCKET        N/A    N/A N/A N/A MISG      29.94F
$$

ANZ330-335-338-340-345-350-353-355-022100-
COASTAL MARINE OBSERVATIONS


STATION/POSITION TIME  SKY/WX   TEMP    WIND        PRES    VSBY  WAVE
                                AIR SEA DIR/SP/G                  HT/PER
                 (UTC)          (F)     (DEG/KT/KT) (MB)    (MI)  (FT/S)
NY HARB ENTRANCE 1850            78 78  170/ 12/ 14 1014.2          2/ 7
4S FIRE IS       NOT AVBL
20S FIRE ISLAND  1850            76 76  200/  8/ 10 1014.8          2/14
GREAT SOUTH BAY  1900            77 80  220/ 10/ 12   N/A
23SW MTP         1950            75 74  230/  8/  8 1014.0          1/ 7
HUDSON CANYON    NOT AVBL
KINGS POINT      1900            81 74  200/ 12/ 14 1013.2
EXECUTION ROCKS  1900            82     180/  8/ 10   N/A
CENTRAL LI SOUND NOT AVBL
EASTERN LI SOUND 1900            74 71  180/  6/  8   N/A
ROBBINS REEF     1900            78     160/ 17/ 18 1012.7
$$


>>>>>>>>>>>>>>>>>>>>>>>>>>>> KEY <<<<<<<<<<<<<<<<<<<<<<<<<<<
>                                                          <
>     SKY/WX - SKY CONDITION/PRESENT WEATHER               <
>     TMP    - TEMPERATURE IN FAHRENHEIT                   <
>     DP     - DEWPOINT IN FAHRENHEIT                      <
>     RH     - RELATIVE HUMIDITY IN PERCENT                <
>     WIND   - DIRECTION AND SPEED IN MPH                  <
>     PRES   - MEAN SEA LEVEL PRESSURE IN INCHES OF HG     <
>     WCI    - WIND CHILL INDEX                            <
>     VSB    - VISIBILITY IN MILES                         <
>     HX     - HEAT INDEX                                  <
>     TC     - TEMPERATURE IN CELSIUS                      <
>     VRB    - VARIABLE WIND DIRECTION                     <
>                                                          <
>>>>>>>>>>>>>>>>>>>>>>>>>>>> KEY <<<<<<<<<<<<<<<<<<<<<<<<<<<





USA.gov is the U.S. government's official web portal to all federal, state and local government web resources and services.